User: anonymous   Login
Location: York
(31.8935°S, 116.7682°E)
Time: 04:23:30
(UTC+08:00)
Language:

Transit 2A - Orbit

View from above orbital plane
View from above orbital plane
View from above satellite
View from above satellite

Ground track
Ground track

The orbit data is extracted from the following two-line orbital elements,

1    45U 60007A   21164.10311421 -.00000070  00000-0  91808-5 0  9998
2    45  66.6930 150.4819 0249261  51.9991 310.3332 14.33721518174403
Epoch (UTC): 13 June 2021 02:28:29
Eccentricity: 0.0249261
inclination: 66.6930°
perigee height: 601 km
apogee height: 958 km
right ascension of ascending node: 150.4819°
argument of perigee: 51.9991°
revolutions per day: 14.33721518
mean anomaly at epoch: 310.3332°
orbit number at epoch: 17440

The dashed part of the orbit path shows where the satellite is in the earth's shadow,  

DLR